Hatteras, NC

12:11 AM EDT on June 23, 2017 (GMT -0400)
Mitchell

Weather History for KHSE - December, 2014

Change the Weather History Date:

Wednesday, December 3, 2014

  Actual Average Record
Temperature  
Mean Temperature 59 °F 53 °F  
Max Temperature 66 °F 59 °F 78 °F (1991)
Min Temperature 51 °F 46 °F 31 °F (1960)
Degree Days  
Heating Degree Days 6 13  
Month to date heating degree days 20 37  
Since 1 July heating degree days 421 355  
Cooling Degree Days 0 0  
Month to date cooling degree days 0 0  
Year to date cooling degree days 1764 1711  
Growing Degree Days 6 (Base 50)    
Moisture  
Dew Point 53 °F    
Average Humidity 89    
Maximum Humidity 100    
Minimum Humidity 78    
Precipitation  
Precipitation 0.00 in 0.13 in 3.35 in (1897)
Month to date precipitation 0.00 0.40  
Year to date precipitation 59.39 54.17  
Snow  
Snow 0.00 in - - ()
Month to date snowfall 0.0  
Since 1 July snowfall 0.0  
Snow Depth 0.00 in    
Sea Level Pressure  
Sea Level Pressure 30.26 in    
Wind  
Wind Speed 4 mph (NW)    
Max Wind Speed 9 mph    
Max Gust Speed 13 mph    
Visibility 4 miles    
Events Fog    
T = Trace of Precipitation, MM = Missing Value Source: NWS Daily Summary

Daily Weather History Graph

Daily Weather History Graph

Search for Another Location

Airport or City:

Trip Planner

Search our weather history database for the weather conditions in past years. The results will help you decide how hot, cold, wet, or windy it might be!

Date:

Astronomy

Dec. 03, 2014 Rise Set
Actual Time 6:54 AM EST 4:50 PM EST
Civil Twilight 6:26 AM EST 5:17 PM EST
Nautical Twilight 5:55 AM EST 5:49 PM EST
Astronomical Twilight 5:24 AM EST 6:20 PM EST
Moon 3:03 PM EST (12/3) 3:45 AM EST (12/3)
Length of Visible Light 10h 51m
Length of Day
9h 55m
Waxing Gibbous, 91% of the Moon is Illuminated
Dec 3
Waxing Gibbous
Dec 6
Full
Dec 14
Last Quarter
Dec 21
New
Dec 28
First Quarter

Hourly Weather History & Observations

Time (EST) Temp. Dew Point Humidity Pressure Visibility Wind Dir Wind Speed Gust Speed Precip Events Conditions
12:51 AM 51.1 °F 51.1 °F 100% 30.30 in 0.2 mi NNE 5.8 mph - N/A Fog Fog
1:51 AM 51.1 °F 51.1 °F 100% 30.30 in 0.2 mi NE 3.5 mph - N/A Fog Fog
2:51 AM 52.0 °F 52.0 °F 100% 30.31 in 0.2 mi ENE 4.6 mph - N/A Fog Fog
3:51 AM 52.0 °F 52.0 °F 100% 30.29 in 0.2 mi NNE 3.5 mph - N/A Fog Fog
4:51 AM 52.0 °F 52.0 °F 100% 30.28 in 0.2 mi North 3.5 mph - N/A Fog Fog
5:35 AM 51.1 °F 51.1 °F 100% 30.28 in 0.5 mi Calm Calm - N/A Fog Fog
5:51 AM 51.1 °F 51.1 °F 100% 30.28 in 0.8 mi Variable 3.5 mph - N/A   Mist
6:30 AM 52.0 °F 52.0 °F 100% 30.28 in 1.2 mi Variable 3.5 mph - N/A   Overcast
6:39 AM 51.1 °F 51.1 °F 100% 30.28 in 1.8 mi NNW 5.8 mph - N/A   Overcast
6:47 AM 51.8 °F 51.8 °F 100% 30.28 in 2.5 mi NNW 6.9 mph - N/A   Overcast
6:51 AM 51.1 °F 51.1 °F 100% 30.28 in 2.5 mi NNW 8.1 mph - N/A   Overcast
7:11 AM 51.1 °F 51.1 °F 100% 30.28 in 1.8 mi North 3.5 mph - N/A   Overcast
7:19 AM 51.1 °F 51.1 °F 100% 30.28 in 0.8 mi Variable 3.5 mph - N/A   Overcast
7:38 AM 51.1 °F 51.1 °F 100% 30.28 in 0.2 mi Variable 3.5 mph - N/A Fog Fog
7:51 AM 52.0 °F 52.0 °F 100% 30.28 in 0.2 mi Variable 3.5 mph - N/A Fog Fog
8:02 AM 52.0 °F 52.0 °F 100% 30.28 in 0.8 mi Calm Calm - N/A   Overcast
8:06 AM 52.0 °F 52.0 °F 100% 30.28 in 1.5 mi Calm Calm - N/A   Overcast
8:09 AM 53.1 °F 53.1 °F 100% 30.28 in 2.5 mi Variable 3.5 mph - N/A   Mostly Cloudy
8:17 AM 53.1 °F 53.1 °F 100% 30.28 in 3.0 mi Calm Calm - N/A   Mostly Cloudy
8:51 AM 55.0 °F 55.0 °F 100% 30.28 in 5.0 mi Calm Calm - N/A   Overcast
9:51 AM 61.0 °F 60.1 °F 97% 30.28 in 6.0 mi Calm Calm - N/A   Overcast
10:51 AM 57.9 °F 54.0 °F 87% 30.27 in 10.0 mi Variable 3.5 mph - N/A   Partly Cloudy
11:51 AM 61.0 °F 54.0 °F 78% 30.24 in 10.0 mi Variable 3.5 mph - N/A   Mostly Cloudy
12:51 PM 60.1 °F 54.0 °F 80% 30.21 in 10.0 mi NNW 4.6 mph - N/A   Clear
1:51 PM 61.0 °F 55.0 °F 81% 30.19 in 10.0 mi NW 3.5 mph - N/A   Clear
2:51 PM 60.1 °F 55.0 °F 83% 30.18 in 10.0 mi Calm Calm - N/A   Clear
3:51 PM 57.9 °F 53.1 °F 84% 30.19 in 10.0 mi WNW 4.6 mph - N/A   Clear
4:51 PM 55.9 °F 54.0 °F 93% 30.18 in 10.0 mi SW 3.5 mph - N/A   Clear
5:51 PM 57.0 °F 55.9 °F 96% 30.20 in 5.0 mi West 4.6 mph - N/A   Clear
6:51 PM 55.0 °F 54.0 °F 96% 30.20 in 5.0 mi WSW 3.5 mph - N/A   Clear
7:51 PM 55.9 °F 55.9 °F 100% 30.21 in 6.0 mi WSW 3.5 mph - N/A   Clear
8:51 PM 60.1 °F 59.0 °F 96% 30.22 in 7.0 mi West 4.6 mph - N/A   Clear
9:51 PM 59.0 °F 57.9 °F 96% 30.22 in 10.0 mi West 5.8 mph - N/A   Clear
10:51 PM 57.0 °F 57.0 °F 100% 30.23 in 10.0 mi WNW 5.8 mph - N/A   Clear
11:51 PM 55.9 °F 55.9 °F 100% 30.24 in 10.0 mi NW 5.8 mph - N/A   Clear